Location: ???????
(60.4260°N, 46.9069°E)
Time: 18:36:50
(UTC+00:00)

COSMOS 2428 - Pass Details

Date: 30 March 2020
Orbit: 846 x 856 km, 70.9° (Epoch: 06 June)

Event Time Altitude Azimuth Distance (km) Brightness Sun altitude
Rises 01:10:17 0° 319° (NW) 3,430 5.7 -9.3°
Reaches altitude 10° 01:13:19 10° 304° (WNW) 2,488 4.8 -9.0°
Maximum altitude 01:17:23 21° 258° (WSW) 1,846 3.9 -8.5°
Drops below altitude 10° 01:21:26 10° 212° (SSW) 2,472 4.6 -8.1°
Sets 01:24:27 0° 197° (SSW) 3,401 5.5 -7.7°
